[[{"header":{"parameterUnit":"m.s-1","parameterCategory":1,"la1":30.2991,"la2":30.254,"lo1":-89.0895,"lo2":-89.0444,"dy":0.0017,"dx":0.0017,"nx":28,"ny":28,"refTime":"2025-12-10T03:00:00:Z","depth":0,"parameterNumber":2,"parameterNumberName":"U-component_of_WINDS"},"data":[0,0,0,0,0,0,0,0,0,0,0,0,0,0,0,0,0,0,0,0,0,0,0,0,0,0,0,0,0,0,0,0,0,0,0,0,0,0,0,0,0,0,0,0,0,0,0,0,0,0,0,0,0,0,0,0,0,0,-0.515,-0.515,0,-0.5123,-0.5122,-0.5122,-0.5075,-0.5074,-0.5073,-0.5072,-0.5047,-0.5047,-0.5047,0,0,0,0,0,0,0,0,0,0,0,0,0,-0.5164,-0.5164,-0.515,-0.515,-0.5149,-0.5123,-0.5122,-0.5122,-0.5075,-0.5074,-0.5073,-0.5072,-0.5047,-0.5047,-0.5047,0,0,0,0,0,0,0,0,0,0,0,0,0,-0.5149,-0.5164,-0.515,-0.5122,-0.512,-0.5123,-0.5122,-0.5122,-0.5075,-0.5074,-0.5072,-0.5071,-0.5047,-0.5047,-0.5047,-0.5076,0,0,-0.5048,-0.5048,0,0,0,0,0,0,0,0,-0.515,-0.5149,-0.5127,-0.5124,-0.5121,-0.5101,-0.5118,-0.5107,-0.5076,-0.5092,-0.5072,-0.5071,-0.5066,-0.5065,-0.5063,-0.5075,-0.5074,-0.5048,-0.5048,-0.5048,-0.5049,0,0,0,0,0,0,0,-0.5151,-0.515,-0.5139,-0.5127,-0.5123,-0.5112,-0.5109,-0.5116,-0.5087,-0.5091,-0.5087,-0.5084,-0.5064,-0.5063,-0.5062,-0.5073,-0.5048,-0.5048,-0.5049,-0.5049,-0.5109,-0.511,0,0,0,0,0,0,-0.5156,-0.5151,-0.514,-0.5138,-0.5133,-0.5113,-0.5109,-0.5109,-0.5087,-0.5082,-0.5086,-0.5082,-0.5063,-0.5062,-0.5061,-0.5093,-0.5048,-0.5049,-0.5049,-0.5107,-0.5109,-0.5111,0,0,0,0,0,0,-0.5156,-0.5155,-0.5141,-0.5144,-0.5141,-0.5114,-0.5114,-0.5109,-0.5107,-0.5083,-0.5078,-0.5089,-0.5062,-0.506,-0.5073,-0.5092,-0.5049,-0.5049,-0.5106,-0.5108,-0.511,-0.5159,0,0,0,0,0,0,-0.5157,-0.5156,-0.5166,-0.5144,-0.5141,-0.5153,-0.5115,-0.5109,-0.5107,-0.5103,-0.5085,-0.5081,-0.5061,-0.5073,-0.5073,-0.5092,-0.5049,-0.5104,-0.5107,-0.5109,-0.5156,-0.5163,-0.5169,0,0,0,0,0,-0.5158,-0.5181,-0.5166,-0.5165,-0.5153,-0.5154,-0.5152,-0.5128,-0.5109,-0.5119,-0.5104,-0.5081,-0.509,-0.5074,-0.5074,-0.5093,-0.5103,-0.5106,-0.5109,-0.5153,-0.5161,-0.5168,0,0,0,0,0,0,-0.5206,-0.5178,-0.5161,-0.5178,-0.5169,-0.5146,-0.5158,-0.5138,-0.5134,-0.513,-0.5101,-0.5098,-0.5114,-0.5105,-0.5088,-0.512,-0.5093,-0.5096,-0.5126,-0.5134,-0.514,-0.5142,-0.5049,0,0,0,0,0,-0.5219,-0.5221,-0.5196,-0.5214,-0.521,-0.5185,-0.5185,-0.5167,-0.5156,-0.5152,-0.5138,-0.5129,-0.513,-0.5131,-0.5131,-0.5154,-0.515,-0.5167,-0.5174,-0.5179,-0.5183,-0.5195,-0.5203,-0.5121,-0.5121,-0.5121,0,0,-0.5245,-0.5229,-0.5233,-0.5223,-0.5214,-0.5218,-0.5182,-0.5188,-0.5191,-0.5153,-0.5164,-0.5153,-0.5142,-0.516,-0.5167,-0.5153,-0.5204,-0.5183,-0.5188,-0.5188,-0.5199,-0.5207,-0.5214,-0.5124,-0.5123,-0.5123,0,0,-0.5295,-0.5283,-0.5296,-0.5288,-0.5274,-0.5257,-0.5261,-0.5241,-0.5232,-0.5242,-0.5215,-0.5218,-0.522,-0.5213,-0.521,-0.5259,-0.5238,-0.5259,-0.5294,-0.5306,-0.5313,-0.5318,-0.5336,-0.5343,-0.5263,-0.5263,-0.5263,0,-0.5329,-0.5334,-0.5306,-0.5314,-0.5311,-0.5276,-0.5291,-0.5284,-0.5271,-0.527,-0.5254,-0.5256,-0.5246,-0.5262,-0.5274,-0.5272,-0.5276,-0.5261,-0.5314,-0.5319,-0.5324,-0.5341,-0.5348,-0.5266,-0.5265,-0.5265,-0.5265,0,-0.5377,-0.5381,-0.5394,-0.5381,-0.538,-0.5391,-0.5366,-0.5368,-0.5351,-0.5336,-0.5348,-0.5334,-0.5331,-0.5333,-0.5316,-0.5348,-0.5339,-0.5319,-0.529,-0.5335,-0.535,-0.5357,-0.5269,-0.5268,-0.5268,-0.5267,0,0,-0.5457,-0.543,-0.5435,-0.5429,-0.5412,-0.5414,-0.5424,-0.542,-0.5423,-0.5415,-0.5424,-0.5426,-0.5407,-0.5404,-0.5386,-0.5397,-0.5437,-0.5375,-0.5375,-0.5388,-0.5472,-0.5488,-0.5496,-0.5423,-0.5424,-0.5425,-0.5474,0,-0.5504,-0.5518,-0.5494,-0.5515,-0.5519,-0.5486,-0.5495,-0.5486,-0.5473,-0.5475,-0.546,-0.5463,-0.5437,-0.5435,-0.5445,-0.5431,-0.5454,-0.5427,-0.5432,-0.5432,-0.5436,-0.5504,-0.5521,-0.5567,-0.5479,-0.548,-0.5481,0,-0.556,-0.5555,-0.5576,-0.5558,-0.5558,-0.5567,-0.5561,-0.5563,-0.5553,-0.5542,-0.5539,-0.5518,-0.5527,-0.5499,-0.5513,-0.5495,-0.5496,-0.5489,-0.549,-0.549,-0.546,-0.5507,-0.5581,-0.5589,-0.549,-0.549,-0.5489,0,-0.5618,-0.5616,-0.5628,-0.5624,-0.5603,-0.561,-0.5602,-0.5589,-0.5589,-0.5584,-0.5584,-0.5581,-0.558,-0.5579,-0.5558,-0.5539,-0.5574,-0.5544,-0.5567,-0.5568,-0.5576,-0.5576,-0.5653,-0.5576,-0.5576,-0.5575,-0.5575,0,-0.5673,-0.5687,-0.5654,-0.5661,-0.5677,-0.565,-0.5666,-0.5655,-0.5644,-0.565,-0.5622,-0.5628,-0.5599,-0.5603,-0.5587,-0.5601,-0.56,-0.5593,-0.5589,-0.5596,-0.5597,-0.5597,-0.5593,-0.5577,-0.5577,-0.5577,-0.5576,0,-0.574,-0.5718,-0.5729,-0.5708,-0.5703,-0.5716,-0.5698,-0.5705,-0.569,-0.5698,-0.5698,-0.5675,-0.5678,-0.5657,-0.5655,-0.5644,-0.5667,-0.5657,-0.5671,-0.5668,-0.5692,-0.569,-0.5771,-0.5781,-0.5697,-0.5698,-0.5699,0,-0.5777,-0.5787,-0.5767,-0.5768,-0.5761,-0.5764,-0.5763,-0.5737,-0.5738,-0.5727,-0.5735,-0.5735,-0.5734,-0.574,-0.5724,-0.5723,-0.5713,-0.5742,-0.5713,-0.572,-0.5715,-0.5715,-0.5716,-0.5748,-0.5749,-0.575,-0.5751,0,-0.5845,-0.5834,-0.5833,-0.5829,-0.5829,-0.5824,-0.5818,-0.5821,-0.5793,-0.5795,-0.5797,-0.5796,-0.5795,-0.5796,-0.5792,-0.5784,-0.5764,-0.576,-0.5765,-0.5773,-0.5781,-0.5778,-0.5688,-0.5758,-0.5757,-0.5757,-0.5756,-0.5756,-0.5899,-0.5907,-0.5894,-0.5895,-0.5887,-0.5882,-0.5888,-0.5873,-0.5874,-0.5871,-0.5856,-0.5861,-0.5851,-0.5843,-0.5838,-0.5842,-0.5828,-0.5836,-0.5838,-0.5841,-0.5845,-0.578,-0.5841,-0.5841,-0.5841,-0.584,-0.584,0,-0.5967,-0.5957,-0.5958,-0.595,-0.5951,-0.593,-0.5922,-0.5924,-0.5929,-0.5921,-0.592,-0.5923,-0.5924,-0.5908,-0.5907,-0.5914,-0.5904,-0.5915,-0.5914,-0.5913,-0.5857,-0.5853,-0.5922,-0.5922,-0.5922,-0.5922,-0.5922,-0.5922,-0.6002,-0.6015,-0.6002,-0.6011,-0.6001,-0.6006,-0.6003,-0.5999,-0.5992,-0.5997,-0.5997,-0.5986,-0.5975,-0.5974,-0.5974,-0.5969,-0.5971,-0.5985,-0.5977,-0.5925,-0.5917,-0.591,-0.5905,-0.5985,-0.5985,-0.6033,-0.6033,-0.6034]},{"header":{"parameterUnit":"m.s-1","parameterCategory":1,"la1":30.2991,"la2":30.254,"lo1":-89.0895,"lo2":-89.0444,"dy":0.0017,"dx":0.0017,"nx":28,"ny":28,"refTime":"2025-12-10T03:00:00:Z","depth":0,"parameterNumber":3,"parameterNumberName":"V-component_of_WINDS"},"data":[0,0,0,0,0,0,0,0,0,0,0,0,0,0,0,0,0,0,0,0,0,0,0,0,0,0,0,0,0,0,0,0,0,0,0,0,0,0,0,0,0,0,0,0,0,0,0,0,0,0,0,0,0,0,0,0,0,0,2.6604,2.6604,0,2.6654,2.6654,2.6655,2.6602,2.66,2.6598,2.6596,2.6646,2.6649,2.6652,0,0,0,0,0,0,0,0,0,0,0,0,0,2.6459,2.6462,2.6603,2.6604,2.6605,2.6654,2.6654,2.6655,2.6602,2.66,2.6597,2.6595,2.6645,2.6649,2.6653,0,0,0,0,0,0,0,0,0,0,0,0,0,2.6517,2.6463,2.6603,2.6584,2.6583,2.6653,2.6654,2.6655,2.6603,2.66,2.6597,2.6594,2.6644,2.6649,2.6653,2.6744,0,0,2.6668,2.667,0,0,0,0,0,0,0,0,2.6514,2.6522,2.6587,2.6586,2.6585,2.6618,2.6622,2.6685,2.6604,2.6595,2.6596,2.6592,2.6639,2.6644,2.666,2.6747,2.6749,2.6669,2.6672,2.6674,2.6675,0,0,0,0,0,0,0,2.651,2.652,2.6623,2.6588,2.6586,2.6572,2.6577,2.6633,2.6634,2.6596,2.6592,2.6599,2.6638,2.6656,2.6661,2.675,2.6668,2.6673,2.6676,2.6678,2.6909,2.6912,0,0,0,0,0,0,2.6508,2.6517,2.6622,2.6625,2.6541,2.6578,2.6583,2.6611,2.6633,2.6634,2.6601,2.6596,2.6649,2.6656,2.6663,2.6768,2.6674,2.6678,2.6681,2.6906,2.691,2.6913,0,0,0,0,0,0,2.6505,2.6518,2.662,2.657,2.6582,2.6583,2.6615,2.6613,2.6631,2.6637,2.6637,2.662,2.6647,2.6656,2.6724,2.6769,2.668,2.6685,2.6902,2.6907,2.6912,2.6981,0,0,0,0,0,0,2.6501,2.6517,2.6553,2.6571,2.6585,2.6681,2.6618,2.6616,2.664,2.6633,2.6654,2.6655,2.6645,2.6717,2.6729,2.6774,2.6688,2.6898,2.6904,2.691,2.6975,2.6988,2.6999,0,0,0,0,0,2.6496,2.6571,2.6555,2.6568,2.6629,2.6684,2.6691,2.6679,2.6644,2.6678,2.6682,2.6654,2.6763,2.6724,2.6737,2.6785,2.6895,2.6903,2.691,2.6969,2.6985,2.6999,0,0,0,0,0,0,2.6558,2.6573,2.6555,2.6638,2.666,2.6675,2.6718,2.6697,2.6729,2.6722,2.6705,2.671,2.6781,2.679,2.6747,2.6872,2.6823,2.6833,2.6864,2.6879,2.6891,2.6886,2.6692,0,0,0,0,0,2.6582,2.6626,2.6636,2.6708,2.672,2.6717,2.6741,2.6729,2.6751,2.676,2.6769,2.679,2.6829,2.6855,2.6891,2.6976,2.6978,2.7015,2.7027,2.7037,2.7046,2.7088,2.7104,2.6937,2.6937,2.6937,0,0,2.663,2.6644,2.6672,2.672,2.6736,2.678,2.6725,2.6776,2.6807,2.6767,2.6831,2.6838,2.6861,2.6937,2.6971,2.6947,2.7092,2.7047,2.7054,2.7057,2.7097,2.7113,2.7127,2.6942,2.6941,2.6941,0,0,2.6741,2.6757,2.6816,2.6833,2.6857,2.6854,2.6869,2.6887,2.6889,2.6953,2.6923,2.6961,2.7029,2.7045,2.7063,2.7177,2.7151,2.7189,2.7252,2.7294,2.7307,2.7318,2.7356,2.737,2.7198,2.7198,2.7198,0,2.6798,2.6864,2.685,2.6901,2.6922,2.6888,2.6947,2.6964,2.6998,2.7013,2.6985,2.7067,2.7081,2.7159,2.7186,2.7203,2.7217,2.7186,2.7306,2.7317,2.7328,2.7364,2.7379,2.7203,2.7202,2.7202,2.7201,0,2.6931,2.6978,2.7023,2.7057,2.7083,2.7138,2.7131,2.7159,2.7145,2.7145,2.7209,2.7224,2.7261,2.7279,2.7266,2.7354,2.7338,2.7309,2.7258,2.7348,2.7382,2.7396,2.7209,2.7207,2.7206,2.7205,0,0,2.7083,2.7106,2.7123,2.7136,2.7159,2.7194,2.7247,2.7283,2.7306,2.7331,2.7373,2.743,2.7402,2.7422,2.7411,2.7448,2.7534,2.7413,2.7413,2.7433,2.7629,2.7649,2.7665,2.7518,2.752,2.7523,2.7626,0,2.7191,2.7283,2.7271,2.7358,2.7399,2.7366,2.7412,2.743,2.7431,2.7465,2.7466,2.7506,2.7468,2.7479,2.7514,2.7516,2.7572,2.7509,2.7555,2.7557,2.7548,2.7683,2.7705,2.7802,2.7639,2.7641,2.7643,0,2.7331,2.7359,2.7451,2.7464,2.7481,2.7523,2.7553,2.7587,2.7606,2.7604,2.7625,2.7606,2.7657,2.7607,2.7676,2.7633,2.7651,2.7655,2.7658,2.766,2.7604,2.7687,2.7833,2.7847,2.7664,2.7662,2.7661,0,2.7428,2.749,2.7551,2.7564,2.7583,2.7612,2.7621,2.7638,2.7659,2.7686,2.7699,2.7732,2.7749,2.7774,2.7764,2.7729,2.7833,2.7783,2.7831,2.7831,2.7853,2.7852,2.8002,2.7869,2.7869,2.7869,2.7869,0,2.755,2.7606,2.7595,2.7633,2.7694,2.7679,2.774,2.7745,2.7759,2.7796,2.777,2.7805,2.7791,2.7825,2.7817,2.7874,2.7882,2.7881,2.7878,2.7882,2.7882,2.7892,2.7884,2.7873,2.7872,2.7871,2.787,0,2.7668,2.7664,2.7728,2.774,2.7744,2.7789,2.7798,2.7833,2.7831,2.7878,2.7888,2.7886,2.7924,2.7917,2.7959,2.7954,2.8024,2.8014,2.8017,2.8014,2.8061,2.8056,2.8222,2.8242,2.8098,2.81,2.8101,0,2.7745,2.7788,2.7803,2.7826,2.7837,2.7874,2.7896,2.7882,2.7905,2.7929,2.796,2.7996,2.8023,2.8086,2.8087,2.8119,2.8107,2.8163,2.8112,2.8114,2.8105,2.8102,2.8104,2.8173,2.8175,2.8176,2.8177,0,2.7881,2.7876,2.7908,2.7938,2.7964,2.7988,2.8009,2.8029,2.8017,2.8044,2.8082,2.8104,2.8146,2.8181,2.821,2.8218,2.8195,2.8193,2.8206,2.8209,2.8208,2.8207,2.8042,2.8189,2.8188,2.8187,2.8187,2.8186,2.7979,2.8014,2.803,2.8065,2.808,2.8099,2.8131,2.8133,2.8165,2.8198,2.8188,2.8231,2.8247,2.8283,2.8295,2.8327,2.8306,2.8325,2.8329,2.8333,2.8337,2.8205,2.8333,2.8332,2.8332,2.8332,2.8331,0,2.8111,2.8119,2.8152,2.8181,2.8209,2.8186,2.8207,2.8231,2.8269,2.8286,2.8313,2.8356,2.8389,2.8393,2.8423,2.8448,2.8438,2.8457,2.8454,2.8455,2.8356,2.8341,2.8464,2.8464,2.8464,2.8464,2.8464,2.8464,2.8183,2.8239,2.8236,2.8298,2.8306,2.8348,2.8361,2.8378,2.8391,2.844,2.8467,2.8469,2.848,2.8511,2.854,2.854,2.8551,2.8573,2.8569,2.8476,2.8463,2.845,2.8435,2.8577,2.8577,2.8665,2.8666,2.8667]}]]